Date String (YYYY-MM-DD hh:mm:ss) UTC,Instrument flags,Ambient pressure (hPa),Sample flow (lpm),Bypass flow (lpm),Sample temperature (°C),Ambient temperature (°C),ASC tube jacket temperature (°C),LED temperature (°C),Box temperature (°C),Sample RH (%),Span deviation,Mass concentration (μg/m³),Mass concentration (μg/m³),Mass concentration (μg/m³)
DateTimeUTC,F1_M11,P_M11,Q1_M11,Q2_M11,T1_M11,T2_M11,T3_M11,T4_M11,T5_M11,U1_M11,ZSPAN_M11,X0_M11,X2_M11,X1_M11
2022-06-02 13:00:00,,0828.4,5.00,0.00,25.4,24.4,00.0,34.3,27.4,26.6,0000.0,0007.51,0004.74,0004.38
2022-06-02 13:01:00,,0828.4,5.00,0.00,25.4,24.4,00.0,34.3,27.4,26.5,0000.0,0007.77,0004.81,0004.44
2022-06-02 13:02:00,,0828.4,5.01,0.00,25.4,24.4,00.0,34.3,27.4,26.3,0000.0,0007.75,0004.84,0004.49
2022-06-02 13:03:00,,0828.4,4.99,0.00,25.4,24.5,00.0,34.3,27.4,26.6,0000.0,0007.90,0004.90,0004.54
2022-06-02 13:04:00,,0828.4,5.00,0.00,25.4,24.5,00.0,34.3,27.4,26.5,0000.0,0007.93,0004.95,0004.59
2022-06-02 13:05:00,,0828.4,4.99,0.00,25.4,24.5,00.0,34.3,27.4,26.6,0000.0,0007.97,0004.99,0004.65
2022-06-02 13:06:00,,0828.4,5.01,0.00,25.4,24.5,00.0,34.3,27.4,26.6,0000.0,0008.04,0005.05,0004.70
2022-06-02 13:07:00,,0828.4,5.00,0.00,25.4,24.5,00.0,34.3,27.4,27.0,0000.0,0008.06,0005.10,0004.77
2022-06-02 13:08:00,,0828.4,5.01,0.00,25.4,24.5,00.0,34.3,27.4,26.9,0000.0,0008.18,0005.16,0004.83
2022-06-02 13:09:00,,0828.4,5.00,0.00,25.5,24.5,00.0,34.3,27.4,26.3,0000.0,0008.20,0005.19,0004.87
2022-06-02 13:10:00,,0828.4,5.01,0.00,25.5,24.5,00.0,34.3,27.4,26.2,0000.0,0008.23,0005.22,0004.91
2022-06-02 13:11:00,,0828.4,5.01,0.00,25.5,24.5,00.0,34.3,27.5,26.0,0000.0,0007.98,0005.23,0004.94
2022-06-02 13:12:00,,0828.4,4.99,0.00,25.5,24.5,00.0,34.3,27.5,26.0,0000.0,0007.80,0005.25,0004.95
2022-06-02 13:13:00,,0828.4,5.00,0.00,25.5,24.6,00.0,34.3,27.5,26.9,0000.0,0007.87,0005.29,0004.97
2022-06-02 13:14:00,,0828.4,5.00,0.00,25.5,24.6,00.0,34.4,27.5,27.2,0000.0,0007.71,0005.24,0004.95
2022-06-02 13:15:00,,0828.4,5.01,0.00,25.5,24.6,00.0,34.4,27.5,26.9,0000.0,0007.72,0005.22,0004.91
2022-06-02 13:16:00,,0828.4,5.01,0.00,25.5,24.6,00.0,34.4,27.5,26.6,0000.0,0007.72,0005.20,0004.89
2022-06-02 13:17:00,,0828.5,4.99,0.00,25.5,24.6,00.0,34.4,27.5,26.8,0000.0,0007.70,0005.17,0004.86
2022-06-02 13:18:00,,0828.4,5.00,0.00,25.5,24.6,00.0,34.4,27.5,26.8,0000.0,0007.75,0005.14,0004.81
2022-06-02 13:19:00,,0828.4,5.01,0.00,25.5,24.6,00.0,34.4,27.5,26.9,0000.0,0008.25,0005.08,0004.76
2022-06-02 13:20:00,,0828.4,5.00,0.00,25.5,24.6,00.0,34.4,27.5,26.7,0000.0,0008.21,0005.05,0004.73
2022-06-02 13:21:00,,0828.5,5.00,0.00,25.6,24.6,00.0,34.4,27.6,26.3,0000.0,0008.21,0005.05,0004.73
2022-06-02 13:22:00,,0828.4,4.99,0.00,25.6,24.6,00.0,34.4,27.6,26.6,0000.0,0008.25,0005.06,0004.73
2022-06-02 13:23:00,,0828.4,5.00,0.00,25.6,24.7,00.0,34.4,27.6,27.3,0000.0,0008.16,0005.01,0004.70
2022-06-02 13:24:00,,0828.5,4.99,0.00,25.6,24.7,00.0,34.4,27.6,27.2,0000.0,0008.10,0004.94,0004.65
2022-06-02 13:25:00,,0828.5,5.01,0.00,25.6,24.7,00.0,34.4,27.6,27.4,0000.0,0008.19,0004.96,0004.65
2022-06-02 13:26:00,,0828.4,5.00,0.00,25.6,24.7,00.0,34.5,27.6,27.4,0000.0,0008.14,0004.95,0004.67
2022-06-02 13:27:00,,0828.5,5.00,0.00,25.6,24.7,00.0,34.5,27.6,27.2,0000.0,0008.35,0005.00,0004.70
2022-06-02 13:28:00,,0828.5,5.00,0.00,25.6,24.7,00.0,34.5,27.6,27.2,0000.0,0009.11,0005.03,0004.71
2022-06-02 13:29:00,,0828.5,5.00,0.00,25.6,24.7,00.0,34.5,27.6,27.3,0000.0,0009.19,0005.07,0004.74
2022-06-02 13:30:00,,0828.5,5.00,0.00,25.6,24.7,00.0,34.5,27.6,27.1,0000.0,0008.59,0005.11,0004.78
2022-06-02 13:31:00,,0828.5,5.00,0.00,25.6,24.7,00.0,34.5,27.6,26.6,0000.0,0008.63,0005.13,0004.80
2022-06-02 13:32:00,,0828.5,5.01,0.00,25.6,24.7,00.0,34.5,27.6,26.4,0000.0,0008.69,0005.15,0004.81
2022-06-02 13:33:00,,0828.4,4.99,0.00,25.7,24.7,00.0,34.5,27.6,26.8,0000.0,0008.73,0005.16,0004.82
2022-06-02 13:34:00,,0828.6,5.01,0.00,25.7,24.7,00.0,34.5,27.6,26.5,0000.0,0009.38,0005.22,0004.86
2022-06-02 13:35:00,,0828.8,4.99,0.00,25.7,24.7,00.0,34.5,27.7,25.8,0000.0,0009.67,0005.30,0004.93
2022-06-02 13:36:00,,0829.0,5.01,0.00,25.7,24.7,00.0,34.5,27.7,25.4,0000.0,0009.66,0005.34,0004.96
2022-06-02 13:37:00,,0829.0,4.99,0.00,25.7,24.7,00.0,34.5,27.7,25.3,0000.0,0009.73,0005.37,0004.96
2022-06-02 13:38:00,,0828.9,5.01,0.00,25.7,24.8,00.0,34.5,27.7,25.3,0000.0,0009.50,0005.32,0004.94
2022-06-02 13:39:00,,0829.0,5.00,0.00,25.7,24.8,00.0,34.6,27.7,25.4,0000.0,0008.74,0005.29,0004.92
2022-06-02 13:40:00,,0829.1,5.00,0.00,25.7,24.8,00.0,34.6,27.7,25.6,0000.0,0008.65,0005.24,0004.90
2022-06-02 13:41:00,,0829.0,4.99,0.00,25.7,24.8,00.0,34.6,27.7,25.5,0000.0,0008.58,0005.20,0004.88
2022-06-02 13:42:00,,0829.1,5.01,0.00,25.7,24.8,00.0,34.6,27.7,24.9,0000.0,0008.51,0005.16,0004.85
2022-06-02 13:43:00,,0828.8,5.00,0.00,25.7,24.8,00.0,34.6,27.7,25.3,0000.0,0008.34,0005.07,0004.79
2022-06-02 13:44:00,,0829.1,4.99,0.00,25.7,24.8,00.0,34.6,27.7,25.4,0000.0,0008.20,0005.01,0004.75
2022-06-02 13:45:00,,0828.8,5.00,0.00,25.7,24.8,00.0,34.6,27.7,25.6,0000.0,0007.69,0005.00,0004.73
2022-06-02 13:46:00,,0828.7,5.01,0.00,25.7,24.8,00.0,34.6,27.8,26.8,0000.0,0007.44,0004.99,0004.71
2022-06-02 13:47:00,,0828.5,4.99,0.00,25.8,24.9,00.0,34.6,27.8,26.8,0000.0,0007.89,0005.03,0004.71
2022-06-02 13:48:00,,0828.6,5.01,0.00,25.8,24.9,00.0,34.6,27.8,26.4,0000.0,0008.07,0005.03,0004.72
2022-06-02 13:49:00,,0828.6,4.98,0.00,25.8,24.9,00.0,34.6,27.8,27.1,0000.0,0008.29,0005.10,0004.74
2022-06-02 13:50:00,,0828.8,5.01,0.00,25.8,24.9,00.0,34.6,27.8,27.4,0000.0,0008.36,0005.13,0004.75
2022-06-02 13:51:00,,0828.6,4.99,0.00,25.8,24.9,00.0,34.7,27.8,27.6,0000.0,0008.39,0005.14,0004.77
2022-06-02 13:52:00,,0828.6,5.00,0.00,25.8,24.9,00.0,34.7,27.8,26.9,0000.0,0008.40,0005.16,0004.78
2022-06-02 13:53:00,,0828.6,5.01,0.00,25.8,24.9,00.0,34.7,27.8,26.9,0000.0,0008.54,0005.18,0004.77
2022-06-02 13:54:00,,0828.6,4.99,0.00,25.8,24.9,00.0,34.7,27.8,27.1,0000.0,0008.70,0005.23,0004.78
2022-06-02 13:55:00,,0828.6,5.01,0.00,25.8,24.9,00.0,34.7,27.8,26.9,0000.0,0008.82,0005.24,0004.76
2022-06-02 13:56:00,,0828.7,4.98,0.00,25.8,24.9,00.0,34.7,27.8,27.1,0000.0,0008.78,0005.21,0004.72
2022-06-02 13:57:00,,0828.6,5.02,0.00,25.8,24.9,00.0,34.7,27.8,27.3,0000.0,0008.72,0005.14,0004.67
2022-06-02 13:58:00,,0828.6,4.99,0.00,25.8,24.9,00.0,34.7,27.8,26.8,0000.0,0008.36,0005.03,0004.61
2022-06-02 13:59:00,,0828.6,5.02,0.00,25.9,24.9,00.0,34.7,27.8,26.8,0000.0,0008.07,0004.98,0004.56
